Theta_e
294 293 293 292 292 291 291 291 291 292 291 291 290 289 289 288 288 288 288 287 287 286 286 286 286 285 285 285 284 283 282 283 282 283 284 284 283 283 283 282 282 282 283 283 283 283 283 283 282 282 281 282 281 281 281 281 281 281 281 281 281 281 281 281 281 281 281 281 282
293 293 293 293 293 292 291 291 291 291 291 291 290 290 289 288 288 288 288 287 287 287 286 286 286 286 285 285 284 283 282 282 282 283 283 283 283 283 283 282 282 282 282 283 283 282 282 282 282 281 281 281 281 280 281 281 282 281 281 281 281 281 281 281 281 281 281 282 282
293 293 293 293 292 292 291 291 291 291 291 291 291 290 289 288 288 288 287 287 287 287 286 286 286 285 285 285 284 284 283 282 282 282 282 283 283 283 282 282 282 282 283 283 282 282 282 282 282 281 281 281 280 280 280 281 281 281 281 281 281 281 281 281 281 281 281 281 282
293 293 292 292 292 292 291 291 291 291 291 291 290 290 289 288 288 288 287 287 287 287 286 286 286 286 285 285 284 284 283 283 282 282 282 282 282 282 282 282 282 282 282 282 282 282 282 282 281 281 281 280 280 280 280 280 281 281 280 281 281 281 281 281 281 281 281 281 282
293 293 292 292 292 292 292 292 291 291 291 291 290 289 289 288 288 288 287 287 286 286 286 286 286 285 285 285 284 284 283 283 283 282 282 282 282 282 282 282 282 282 282 282 282 282 282 282 281 280 280 280 280 280 280 280 280 280 280 280 281 281 281 281 281 281 281 281 281
293 293 292 292 292 292 292 292 292 291 291 290 290 289 288 288 287 287 287 286 286 286 286 286 286 286 285 285 284 284 283 283 283 282 282 282 282 282 282 282 282 282 282 282 282 282 282 281 280 280 280 280 280 280 280 281 280 280 280 280 280 281 281 281 281 281 281 281 281
293 293 292 292 291 291 291 291 291 291 291 290 289 289 288 288 287 287 287 287 286 286 286 286 286 285 285 284 284 283 283 283 283 282 282 281 282 282 282 281 282 282 282 282 282 282 281 281 280 279 280 280 279 280 280 280 280 280 280 280 280 281 281 281 281 281 281 281 281
294 293 292 291 291 290 290 290 290 290 290 289 289 288 288 287 287 287 287 287 286 286 285 285 285 285 284 284 283 283 283 282 282 282 282 281 281 281 281 281 281 281 282 282 281 281 281 280 279 279 279 279 279 279 280 280 280 280 280 280 280 281 281 281 282 281 281 281 281
293 293 292 291 291 290 290 290 290 289 289 288 288 288 287 287 287 287 286 286 286 285 285 285 285 284 284 284 283 283 282 282 282 282 281 281 281 281 281 281 281 281 281 281 281 281 281 280 279 279 279 279 279 279 280 280 280 280 280 280 280 280 281 281 281 281 281 281 280
293 292 292 291 290 290 290 289 289 289 288 288 288 287 287 288 287 286 286 286 286 285 285 284 284 284 284 283 283 283 282 282 282 281 281 281 281 281 281 281 281 281 281 281 280 280 280 279 279 279 279 279 279 279 280 280 280 280 280 280 280 280 281 281 281 281 281 281 280
293 293 292 290 290 290 290 289 289 288 288 288 288 287 287 287 287 286 286 286 285 285 284 284 284 284 283 283 283 282 282 282 281 281 281 281 281 281 281 281 281 281 280 280 280 280 279 279 279 279 279 279 279 280 280 280 280 280 280 280 280 280 280 280 281 281 281 281 280
294 293 293 292 291 290 289 288 288 288 288 287 287 287 287 286 286 286 286 285 285 284 284 284 284 284 283 283 283 283 282 282 281 281 281 281 281 281 281 281 281 281 280 280 280 280 279 279 278 278 278 279 279 280 280 280 280 280 280 280 280 280 280 280 280 281 281 281 280
294 293 293 292 291 290 289 289 288 288 287 287 287 287 287 286 286 286 285 285 284 284 284 284 284 284 284 283 283 282 282 281 281 281 281 281 281 281 281 281 281 281 280 280 280 280 279 279 278 278 278 279 279 280 280 280 280 280 280 279 279 279 279 280 280 280 281 281 280
293 293 292 291 290 289 289 288 288 287 287 287 287 287 287 286 286 286 285 284 284 284 284 284 284 284 284 283 282 282 281 281 281 281 281 281 281 281 281 281 281 281 280 280 280 279 279 279 278 278 278 278 279 279 279 280 280 280 279 279 279 279 279 280 280 280 280 280 280
293 292 292 291 290 289 288 288 287 287 287 287 287 287 287 286 286 286 285 284 284 284 284 284 284 284 283 283 282 282 281 281 281 281 281 281 281 281 281 280 280 280 280 280 280 279 279 279 279 279 279 279 279 279 279 280 279 279 279 279 279 279 279 279 280 280 280 280 279
292 291 291 290 289 288 287 287 287 286 286 286 287 287 287 286 286 285 285 285 284 284 284 284 283 283 283 282 282 282 281 281 281 281 281 280 281 281 281 280 280 280 280 280 279 279 279 279 279 279 279 279 279 279 279 279 279 279 279 279 279 279 279 279 280 280 280 280 279
291 290 290 289 288 287 287 287 286 286 286 285 286 287 287 286 285 285 285 285 284 284 284 283 283 283 282 282 282 282 282 282 281 281 280 280 280 281 280 280 280 280 280 279 279 279 279 279 279 279 279 279 279 279 279 279 279 279 279 279 279 279 279 279 280 280 280 280 279
290 290 289 289 288 287 287 287 286 286 285 285 285 286 286 286 285 285 285 285 284 284 283 283 283 282 282 282 282 282 282 281 281 280 280 281 281 281 280 280 280 280 280 279 279 279 279 279 279 279 280 280 279 279 279 279 279 279 279 279 279 279 279 279 280 280 280 279 279
290 289 289 288 288 288 287 287 287 286 285 285 285 286 286 285 285 284 284 284 284 284 283 283 282 282 282 282 282 282 282 281 281 281 281 281 281 281 280 280 280 280 280 279 279 279 279 279 279 279 279 279 279 279 279 279 279 279 279 279 279 279 279 279 279 279 279 279 279
289 289 288 288 288 287 287 287 287 286 286 285 285 286 285 285 284 284 284 283 284 284 284 283 282 282 282 282 282 282 282 281 281 281 281 281 281 280 280 280 280 280 280 279 279 279 280 279 279 279 279 279 279 279 279 279 279 279 279 279 279 279 279 278 278 279 279 279 279
289 289 288 288 288 287 286 286 286 286 286 285 286 286 286 285 284 284 284 284 284 284 284 283 282 282 282 282 282 281 281 281 281 281 281 281 280 280 280 280 280 280 280 279 279 279 280 280 279 279 279 279 279 278 278 279 279 279 279 279 279 279 278 278 278 278 278 278 278
289 289 289 290 289 288 287 287 286 286 286 285 286 286 286 285 284 284 284 284 284 284 284 283 283 282 282 282 281 281 281 281 281 281 281 280 280 280 280 280 280 280 280 279 279 279 279 280 280 279 279 279 278 278 278 278 278 278 279 279 279 278 278 278 278 278 278 278 278
290 290 291 291 291 290 289 289 288 287 286 286 286 286 286 285 285 285 285 285 285 284 284 283 283 282 282 282 281 281 281 281 281 280 280 280 280 280 280 280 280 280 279 279 279 279 279 279 279 279 279 278 278 278 278 278 278 278 278 278 278 278 278 278 278 277 277 277 277
292 291 291 291 291 290 290 289 289 288 288 287 286 286 286 285 285 285 285 285 284 284 284 283 283 282 282 281 281 281 281 280 280 280 280 280 280 280 280 280 280 280 280 279 279 279 279 279 279 279 279 278 278 278 278 278 278 278 278 278 278 278 278 277 277 277 277 277 277
292 292 291 291 290 290 289 289 288 288 287 287 287 286 286 286 286 285 285 284 284 284 284 283 283 282 281 281 281 281 281 280 280 279 279 279 280 280 280 279 279 279 280 280 282 282 282 282 280 279 279 278 278 278 278 278 278 278 278 278 278 278 278 278 277 277 277 277 277
291 291 291 290 290 289 289 288 288 287 287 287 286 286 286 286 286 285 285 284 284 283 283 283 282 281 281 281 281 281 280 280 280 280 279 279 279 279 279 279 279 279 280 281 283 284 285 284 283 282 280 278 278 278 278 278 278 278 278 278 278 278 277 277 278 278 278 278 278
291 290 290 289 289 289 289 288 288 287 287 287 286 286 286 286 285 285 284 283 283 283 282 282 281 281 281 281 280 280 280 280 280 280 279 279 279 279 279 279 279 279 280 282 284 286 286 286 286 284 282 279 278 278 278 278 278 278 278 278 278 278 277 277 277 278 278 279 279
290 289 289 289 288 288 288 288 288 287 287 286 286 286 285 285 285 284 284 283 283 282 282 281 281 281 281 281 280 280 280 280 280 279 279 279 279 279 279 279 279 280 281 283 285 286 287 287 287 286 284 280 279 278 278 278 278 278 278 278 278 278 278 278 278 279 279 280 281
290 289 288 288 287 287 287 287 287 287 287 287 286 286 285 285 284 283 283 282 282 281 281 281 281 281 281 280 280 280 279 279 279 279 279 279 279 279 279 279 280 281 282 285 286 287 288 288 288 288 286 284 280 279 278 278 278 278 278 278 278 278 278 279 279 280 280 281 282
289 289 288 287 287 286 286 287 287 287 287 287 286 286 285 284 283 282 282 281 281 281 280 281 280 280 280 280 280 280 279 279 279 280 280 279 279 279 280 280 280 281 282 285 286 287 288 289 289 289 288 287 283 280 279 279 279 279 279 279 280 280 280 280 281 281 282 282 283
288 288 287 287 286 286 286 286 287 287 286 286 286 285 284 283 282 281 281 281 280 281 281 281 280 280 280 280 280 280 279 279 279 279 279 279 280 280 280 280 280 281 283 285 287 288 288 289 289 289 289 289 285 283 281 281 281 281 281 281 281 282 282 282 282 283 283 283 283
287 287 287 286 286 286 286 286 286 286 286 285 285 284 283 282 281 281 281 280 280 281 280 280 280 280 280 280 280 280 280 279 279 280 280 280 280 280 280 280 280 281 282 285 287 288 289 289 289 290 290 290 288 285 283 283 282 282 282 283 283 283 283 284 284 284 284 284 284
288 287 286 286 286 286 286 286 286 285 285 284 284 283 282 282 281 281 281 281 281 280 280 280 280 280 280 280 280 280 280 280 280 280 280 280 280 280 280 280 280 281 283 286 287 288 289 289 290 290 290 290 289 287 286 284 284 284 284 284 284 284 285 285 285 285 285 285 285
288 287 287 286 286 286 286 286 285 285 284 283 283 282 282 281 281 281 281 281 281 281 280 280 280 280 280 280 280 281 281 281 281 281 281 281 280 280 280 280 280 281 284 286 287 288 289 289 290 290 290 290 289 287 286 285 285 285 284 285 285 285 285 285 286 286 285 286 285
288 287 287 286 286 286 285 285 285 284 283 282 282 282 282 281 281 281 281 281 281 281 280 280 281 281 281 281 281 281 281 281 281 281 281 280 280 280 280 280 280 282 284 285 287 288 289 289 290 290 290 290 288 287 286 285 285 285 285 285 285 285 285 285 286 286 286 286 286
289 288 287 286 286 286 285 285 284 283 283 282 282 282 282 281 281 281 282 282 282 281 281 281 281 281 281 281 281 282 282 281 281 281 281 281 280 280 279 279 280 281 284 285 287 288 288 289 290 290 290 289 288 287 286 285 285 285 285 285 285 285 285 285 285 286 286 286 286
290 289 287 287 286 286 285 285 284 283 283 282 282 282 282 282 282 282 282 282 282 282 281 281 281 281 281 281 282 282 282 282 282 281 281 281 280 280 279 279 279 281 283 285 287 287 288 289 290 290 290 288 287 286 285 285 285 285 285 285 285 285 285 285 286 286 286 286 285
291 290 288 287 287 286 285 285 284 283 283 283 283 283 283 283 283 283 283 283 282 282 282 282 282 281 282 282 282 282 282 282 282 282 281 281 280 280 279 279 279 280 282 285 286 287 288 289 290 290 289 288 286 285 285 284 284 284 284 285 285 285 285 286 286 286 286 285 286
292 290 289 288 287 286 286 285 285 284 284 284 284 284 284 283 283 283 283 283 283 282 282 282 282 282 282 282 282 282 282 282 282 282 281 281 280 280 280 279 279 280 281 284 286 287 288 289 290 290 290 288 286 285 285 284 284 284 284 284 284 284 285 285 285 285 285 285 286
293 292 290 289 288 287 287 286 286 285 285 285 285 284 284 284 284 284 284 284 283 283 283 283 283 283 283 283 283 282 282 282 282 282 282 281 281 281 281 280 279 280 281 283 285 287 288 289 290 290 290 288 286 285 284 284 284 284 284 284 284 284 284 285 285 285 285 285 286
293 292 290 289 288 288 287 287 287 286 286 286 285 285 285 285 285 284 284 284 283 283 283 283 283 283 283 283 283 282 282 282 282 282 282 282 281 282 282 280 280 280 281 282 285 286 288 289 290 290 290 288 286 285 285 284 283 283 283 283 284 284 284 284 284 285 285 285 285
Wind_Speed
15 13 11 9 9 8 8 8 8 8 8 8 8 8 8 8 9 9 8 8 8 8 8 8 8 9 11 14 15 16 16 17 18 18 18 18 17 17 17 17 16 16 16 15 14 14 13 13 11 9 8 8 8 9 9 8 9 10 10 10 9 9 10 12 11 12 13 13 11
15 14 13 12 11 9 8 8 9 9 9 8 8 8 8 8 9 9 9 9 8 8 8 8 9 11 12 15 16 17 17 17 18 19 19 19 18 17 17 16 17 17 16 16 15 13 12 13 12 9 8 7 8 9 9 9 9 10 11 12 10 9 9 10 11 12 13 13 12
15 15 14 14 13 11 10 9 9 10 11 10 9 8 8 8 8 8 8 9 9 9 8 8 9 12 14 16 16 16 16 17 18 19 18 18 18 18 17 16 17 17 17 16 15 13 12 13 11 9 8 8 8 9 9 9 10 10 11 12 9 8 8 8 10 10 10 10 11
15 15 15 15 16 15 13 11 11 12 12 10 10 9 9 8 8 8 8 9 10 10 10 9 10 11 13 14 16 16 16 17 19 19 18 17 18 18 18 17 17 17 17 16 16 15 14 13 10 9 8 9 10 9 9 8 10 10 9 9 8 8 8 8 8 8 8 8 10
15 15 15 15 17 17 15 13 13 13 12 10 9 9 9 8 8 8 9 9 10 10 10 11 10 11 12 14 16 17 17 18 19 18 17 17 18 18 18 18 18 17 17 16 16 16 15 14 10 8 8 9 9 9 9 10 10 10 9 7 8 8 8 8 8 8 8 8 8
14 15 15 14 16 16 15 13 14 14 12 10 11 11 10 9 9 9 10 10 10 11 12 13 12 11 12 14 16 16 17 17 17 17 17 17 17 17 18 18 18 17 16 16 17 16 15 14 9 8 8 8 8 9 10 11 10 10 9 8 8 8 8 9 8 8 8 9 9
14 14 14 14 15 14 14 13 13 13 12 11 13 13 13 11 11 12 12 11 10 11 12 12 12 12 13 14 15 15 15 15 15 16 17 16 17 17 18 18 18 17 17 16 16 16 14 13 9 8 8 8 8 9 11 11 10 10 10 9 8 8 8 9 8 8 9 11 12
13 13 13 14 14 14 14 14 13 12 12 11 12 14 15 14 14 14 13 12 11 11 11 10 12 13 13 13 14 14 15 15 15 16 16 16 17 17 18 18 18 18 17 16 16 15 14 12 9 8 8 8 8 9 11 13 12 12 11 11 9 8 8 8 8 8 10 12 13
11 11 12 12 12 13 13 13 13 13 12 12 13 14 14 14 15 14 13 12 11 10 10 10 12 13 14 14 14 14 14 15 15 15 15 16 17 17 17 17 17 17 17 16 15 16 15 11 9 9 9 8 8 9 11 14 14 14 13 12 10 10 10 9 10 10 11 12 13
11 11 10 11 12 12 12 12 13 14 14 14 14 14 13 14 14 13 12 10 10 10 10 10 12 13 14 14 14 14 14 13 14 15 15 15 17 17 17 16 17 17 16 15 15 15 15 11 10 10 10 10 10 11 12 13 14 14 13 10 11 12 12 11 12 12 12 12 12
13 12 11 10 11 11 12 12 12 13 13 13 13 13 13 13 13 12 11 10 10 11 12 11 12 13 14 14 13 13 13 12 12 14 15 16 16 17 17 16 16 17 16 15 14 14 13 11 12 12 12 11 12 12 12 13 14 15 14 12 12 13 13 14 13 12 12 12 13
14 13 12 11 11 11 11 12 11 11 12 13 13 13 12 12 12 12 11 11 12 12 12 12 13 13 13 12 13 13 13 13 13 14 15 16 17 17 17 16 16 17 16 16 14 13 12 12 13 14 14 14 11 11 12 14 14 15 15 14 14 14 14 14 13 12 11 11 12
14 13 12 12 12 12 12 12 11 11 12 13 13 12 12 12 12 12 12 13 13 12 11 11 13 13 13 12 13 13 13 13 14 14 15 16 16 16 16 16 16 16 16 15 14 13 12 13 14 15 15 15 12 11 12 14 14 15 15 15 15 15 14 14 13 13 12 12 12
13 13 13 12 12 12 12 12 11 11 11 13 13 12 12 12 12 12 13 13 13 13 12 12 13 13 13 13 13 13 14 14 15 15 15 15 15 16 16 15 16 16 15 14 14 14 14 14 15 15 16 16 14 14 14 14 14 15 15 15 16 15 15 14 13 13 13 13 13
12 13 13 12 12 12 11 12 10 10 11 13 13 12 12 11 12 12 13 13 14 13 12 12 12 13 13 14 14 14 14 14 15 16 16 16 16 16 16 15 16 16 15 13 14 14 15 15 15 15 16 16 16 15 15 15 15 15 15 15 15 15 14 14 13 13 13 13 13
12 12 12 12 12 12 12 12 10 10 11 12 12 12 12 11 11 12 13 14 13 13 13 13 12 12 12 13 14 14 14 15 15 15 16 15 16 16 16 16 16 16 15 15 15 15 15 15 15 15 15 16 16 15 15 15 15 15 15 15 14 14 14 13 13 13 13 14 14
11 11 11 12 13 13 13 13 12 11 12 12 13 13 13 12 11 12 13 14 13 13 13 14 13 12 12 13 13 14 14 14 14 15 15 15 15 16 16 16 16 16 16 16 15 15 15 15 15 15 15 15 15 15 15 15 14 14 14 15 14 13 13 13 13 13 14 14 14
12 12 12 12 14 14 15 15 14 14 14 14 14 14 14 13 12 13 13 14 13 13 14 14 13 13 13 13 13 13 13 13 13 14 14 14 15 16 16 16 16 16 16 16 16 16 16 16 15 15 15 15 14 14 14 14 13 14 14 14 14 13 13 13 14 13 13 14 14
13 12 13 14 15 15 16 16 17 16 16 16 16 16 16 16 15 14 13 13 14 14 15 15 14 14 14 14 14 13 13 13 13 14 14 14 15 15 15 16 16 16 16 15 16 16 16 16 16 16 15 14 13 13 13 13 13 13 14 14 13 13 12 13 13 13 13 13 14
13 13 13 14 14 15 15 16 16 16 15 14 16 17 17 17 16 15 14 13 14 14 15 15 15 14 14 15 15 15 14 12 13 14 15 15 15 15 16 16 16 16 16 15 15 16 16 16 16 16 15 14 13 13 14 14 13 13 13 13 12 12 12 12 12 12 12 13 13
13 13 13 13 13 13 13 13 13 13 12 12 13 14 15 14 14 14 14 13 14 14 15 16 15 15 15 16 16 15 14 12 13 15 15 15 16 16 16 16 16 16 15 14 15 16 16 16 16 15 14 13 14 14 14 13 13 13 13 12 12 12 12 12 12 12 13 13 14
12 12 12 12 12 12 12 12 11 11 10 10 11 11 11 11 12 12 13 13 14 15 16 16 16 16 16 16 16 15 14 13 14 14 15 15 15 16 16 15 16 15 15 14 15 15 16 15 15 14 13 13 13 13 13 13 13 13 13 13 13 12 12 12 12 12 13 13 14
12 11 11 11 12 12 12 11 11 11 10 10 10 10 10 10 11 12 12 13 14 15 15 15 15 16 16 15 15 15 15 14 14 15 15 15 15 15 15 15 15 15 15 14 14 14 14 14 14 13 13 12 13 13 13 13 13 13 13 14 13 12 12 11 12 12 12 13 13
11 11 10 9 10 11 11 11 11 11 11 11 11 11 11 11 11 12 13 14 14 15 15 13 13 14 15 14 15 15 16 15 15 15 15 15 15 15 15 14 14 14 14 12 14 15 14 12 12 12 12 12 12 12 13 13 13 13 13 13 13 12 12 11 12 12 12 13 13
11 10 10 9 9 10 10 10 11 11 11 11 11 11 12 12 12 12 13 14 14 15 15 13 12 12 13 13 14 15 16 16 16 15 15 16 16 15 15 13 13 12 11 11 17 19 19 16 13 12 11 11 11 12 12 13 13 13 12 11 12 11 11 12 12 13 13 13 13
10 9 9 10 10 10 10 11 11 11 11 11 11 12 12 13 12 12 13 14 14 14 14 13 12 12 12 12 14 15 15 14 15 15 15 15 16 16 15 12 11 10 10 13 20 23 24 23 19 16 12 10 11 11 11 11 12 13 12 12 11 11 11 12 12 13 13 13 14
9 9 9 9 9 10 10 11 11 11 12 12 12 12 12 12 12 12 13 14 14 13 13 12 12 12 12 12 14 15 15 13 14 14 15 15 16 16 16 13 11 10 11 16 22 25 26 26 24 21 16 11 11 11 11 10 11 12 12 12 12 12 12 12 13 13 13 13 14
9 8 8 9 9 10 10 10 11 12 12 12 12 12 12 12 12 13 13 13 13 12 12 11 11 11 11 11 13 14 15 14 14 14 14 15 16 17 16 14 12 11 13 19 23 25 26 26 26 24 20 14 11 10 10 10 10 10 11 11 12 12 13 13 12 13 13 13 13
8 8 9 9 10 10 10 11 12 12 12 12 12 12 12 12 13 13 13 13 13 12 11 10 10 10 10 11 12 13 15 15 14 14 14 15 16 17 16 15 14 14 17 22 25 26 26 26 26 25 23 19 13 10 9 9 9 10 10 10 11 12 12 13 12 12 12 13 13
8 8 8 9 10 10 11 11 12 12 12 11 11 12 12 13 13 13 13 13 13 13 12 10 10 11 12 12 12 13 14 15 14 14 15 16 17 17 17 17 15 15 18 24 25 26 26 26 26 26 25 23 16 11 9 9 10 10 10 10 11 12 13 13 13 13 13 12 13
7 7 8 9 10 11 11 12 12 12 12 11 11 12 12 13 13 13 13 13 13 12 12 12 12 13 14 13 13 13 14 14 14 15 16 17 18 18 18 17 16 15 17 23 25 26 26 26 26 26 26 25 19 14 11 11 11 11 10 10 12 13 13 13 13 14 14 14 13
7 8 9 10 11 11 12 11 12 12 12 12 12 12 12 13 12 12 12 12 12 13 13 14 14 15 15 15 14 14 15 15 16 16 16 17 18 18 18 17 16 16 18 23 25 25 26 26 26 26 26 26 20 16 13 12 12 11 11 12 13 13 13 12 12 13 14 15 14
8 9 10 11 11 12 12 11 11 11 12 12 12 12 12 12 12 12 12 12 12 13 14 15 15 15 16 16 15 16 16 16 17 17 18 18 18 18 18 16 15 16 18 23 24 25 25 25 25 25 25 25 20 16 14 13 11 11 11 12 13 14 14 14 13 13 14 14 13
9 9 10 11 11 12 11 11 11 11 12 12 12 12 12 12 12 12 13 12 12 13 13 14 15 15 15 15 16 16 16 15 16 17 18 18 18 18 18 16 13 15 19 23 24 25 25 25 25 25 24 24 19 15 14 14 12 12 12 12 13 13 14 14 14 13 13 13 12
9 10 10 11 11 11 11 11 11 11 11 12 12 12 12 12 13 13 13 13 12 12 12 13 14 14 14 15 15 16 16 16 16 17 18 18 18 18 18 17 14 16 20 23 24 25 25 25 24 24 23 22 16 14 13 14 13 13 13 14 14 14 13 13 12 12 11 11 12
9 10 11 12 11 11 11 11 11 11 12 12 13 13 13 13 13 13 13 13 13 13 13 13 14 14 15 15 15 16 16 17 17 17 17 18 18 19 18 18 15 17 20 23 24 24 25 25 24 24 22 18 14 12 12 12 12 13 14 14 14 14 14 13 11 11 10 10 11
10 11 11 12 12 11 11 11 11 12 12 13 13 13 13 13 13 13 13 13 13 14 14 14 14 15 16 16 15 15 16 16 17 17 17 18 18 18 18 17 16 17 19 22 23 24 24 24 24 23 21 16 12 11 11 11 10 11 12 14 14 14 13 12 11 10 10 10 10
9 10 11 12 12 12 11 11 12 13 13 13 13 13 13 13 12 13 13 13 13 14 14 14 15 15 16 16 15 16 16 16 17 17 17 18 18 18 18 17 16 16 17 21 23 24 24 24 24 23 20 14 12 11 10 10 10 10 11 11 11 12 12 10 10 10 10 11 12
9 10 11 12 12 12 12 12 13 13 13 13 13 13 13 13 12 12 12 12 13 14 14 14 15 15 15 15 15 15 16 17 17 17 17 17 17 18 18 17 16 15 16 19 22 23 24 24 24 23 21 15 12 11 10 9 10 10 10 10 10 10 11 10 9 9 10 12 15
10 10 10 11 12 12 12 13 13 13 13 12 13 13 13 13 12 11 11 12 13 13 13 14 15 15 14 14 14 15 15 16 16 17 17 17 17 18 18 17 15 15 16 19 21 23 23 23 23 23 21 15 12 10 9 9 10 10 10 10 9 9 9 9 9 9 9 11 13
10 10 10 11 12 12 12 13 13 13 12 12 12 12 12 12 11 11 11 11 12 12 12 12 14 14 14 14 13 14 15 16 16 16 16 17 17 17 17 16 15 15 15 17 20 22 23 23 23 23 21 15 12 10 9 9 9 10 11 10 9 8 8 8 8 8 9 10 10
Wind_Direction
227 226 225 223 223 224 226 229 228 227 224 221 217 212 208 208 211 210 206 203 204 205 203 201 199 197 194 192 190 191 194 197 199 201 202 201 199 196 194 193 193 193 194 195 193 191 191 193 194 196 198 199 201 203 205 207 207 208 210 211 213 216 220 222 226 228 230 232 233
226 225 225 225 224 224 226 227 227 226 224 222 220 215 211 209 212 211 209 206 205 203 201 200 198 196 194 193 191 191 192 195 198 200 202 203 200 197 194 193 193 193 193 194 192 191 191 192 194 195 197 198 200 203 205 205 206 209 212 212 213 215 219 223 227 229 231 233 234
224 224 224 224 222 222 221 222 223 223 223 223 220 217 213 211 212 212 211 207 204 202 201 200 197 195 194 193 191 191 192 194 196 198 201 202 200 197 195 194 193 193 193 193 192 192 191 191 193 194 196 198 199 202 204 205 205 209 212 213 214 215 218 223 226 228 230 232 232
223 223 223 224 223 223 222 221 221 221 221 221 219 217 215 212 211 212 211 208 206 204 203 201 198 195 194 193 192 192 192 193 194 196 199 200 199 197 196 194 194 193 193 193 193 193 192 190 191 194 198 199 201 202 203 203 204 207 211 212 213 216 219 223 225 226 228 230 231
224 223 223 224 224 224 224 224 222 221 220 218 217 216 214 211 211 211 210 208 207 206 204 201 199 196 194 193 193 192 192 193 193 195 197 199 198 197 196 195 194 194 193 193 193 194 193 190 191 194 199 200 202 203 204 202 203 206 208 210 212 216 219 222 224 225 226 228 228
225 224 224 225 225 226 226 226 225 223 221 217 217 215 214 210 209 209 210 210 209 208 205 202 200 197 195 193 193 193 192 193 193 194 195 197 197 196 195 196 195 194 193 194 193 193 192 189 191 195 199 201 205 206 205 203 203 205 207 211 212 215 218 221 222 223 225 227 227
227 226 225 225 225 226 227 227 227 226 224 222 220 218 216 212 211 212 212 211 210 207 205 203 201 198 195 193 193 192 192 192 193 194 194 195 195 195 195 195 195 195 194 193 192 192 191 189 191 195 200 202 205 206 205 204 205 206 209 212 212 215 217 220 221 223 225 228 229
230 227 226 225 224 225 226 226 226 226 225 224 223 221 219 216 215 215 214 213 211 207 205 204 201 199 195 192 193 192 192 192 193 193 193 194 195 195 194 194 194 195 195 193 191 190 190 189 193 197 201 203 205 205 204 204 206 209 211 214 215 215 215 217 219 222 226 228 229
230 227 224 222 222 222 223 223 224 224 225 226 225 224 221 220 219 218 217 215 212 208 205 204 202 199 196 194 194 193 192 192 192 193 193 194 195 194 194 193 194 195 194 192 191 190 189 189 194 200 203 204 204 204 203 203 206 210 213 216 217 218 217 217 217 220 224 228 229
228 225 222 221 221 221 221 222 223 225 227 229 228 226 224 223 221 220 219 219 214 210 206 205 202 200 198 196 195 194 193 192 193 193 193 194 195 194 193 192 192 193 192 190 189 188 188 190 196 202 205 206 205 204 203 202 206 209 213 217 218 220 221 220 219 221 223 227 228
226 222 219 217 218 218 219 220 224 226 228 231 230 228 226 225 223 222 221 219 216 213 209 205 202 200 200 198 196 195 193 192 193 193 194 195 195 194 193 192 191 191 190 188 187 186 187 192 198 203 205 206 206 205 205 204 206 209 212 217 218 220 222 223 222 222 224 226 228
223 220 217 214 212 213 214 217 221 225 228 230 230 229 227 226 224 222 220 219 218 216 212 206 203 202 201 200 198 196 194 194 194 194 195 196 195 195 194 192 191 190 188 186 184 184 187 193 199 202 204 205 205 205 206 206 207 210 213 216 218 220 222 224 223 224 225 227 229
220 217 214 209 206 206 209 213 218 222 225 228 229 228 228 227 224 221 219 218 218 216 212 207 205 204 203 201 198 196 195 194 195 195 195 195 195 194 193 192 191 190 188 186 185 185 188 194 198 201 202 204 205 206 206 207 208 210 213 215 217 219 221 222 223 224 226 229 231
219 216 211 206 202 201 205 210 214 219 223 226 227 227 227 227 223 220 218 218 218 216 213 209 208 207 206 202 199 197 196 195 195 196 196 195 194 193 192 192 191 190 188 187 186 188 191 195 198 200 202 204 206 207 207 207 209 211 213 215 217 219 220 221 221 222 226 229 232
222 218 212 206 201 200 202 206 211 217 221 224 225 225 225 225 222 219 218 217 217 216 213 211 210 209 207 203 201 199 197 197 197 197 197 195 194 192 191 191 190 189 188 187 188 191 194 196 198 199 202 204 207 207 207 207 209 211 213 215 217 219 220 220 219 221 223 227 231
227 222 215 208 203 201 201 203 206 211 216 220 221 221 222 222 221 220 218 217 216 215 214 211 210 208 206 204 202 200 199 199 198 198 197 196 194 192 191 190 189 188 188 188 190 194 196 198 198 200 202 205 207 208 208 208 210 212 214 216 218 219 220 220 219 221 223 226 230
229 223 217 211 207 205 203 202 203 205 208 212 213 215 216 217 218 219 218 217 216 214 213 210 207 205 204 204 202 201 201 200 199 198 197 196 194 192 191 189 189 188 188 189 191 194 196 198 199 202 204 206 208 208 208 209 210 212 214 216 217 219 219 220 221 222 225 227 231
226 222 217 212 211 210 208 205 204 203 203 203 205 207 209 209 211 214 216 216 214 212 211 210 207 205 203 202 201 201 201 200 199 197 196 195 193 192 191 189 189 189 189 191 192 194 195 197 199 202 204 207 208 209 209 208 210 212 214 216 217 218 219 220 222 224 227 229 232
225 220 217 214 214 214 213 212 209 206 202 200 200 202 203 203 204 207 209 211 210 209 210 210 208 206 203 201 200 200 200 199 198 196 196 194 193 192 191 190 191 191 191 192 193 194 195 197 199 201 203 206 207 208 208 208 210 212 214 216 216 217 218 220 222 225 228 230 233
228 223 220 217 217 217 218 218 217 214 210 205 203 202 202 201 200 201 203 205 206 208 210 211 209 207 204 202 201 201 200 197 197 196 196 194 193 192 191 191 192 192 192 191 193 194 195 197 199 201 202 203 204 205 207 208 210 212 214 216 217 217 218 219 221 224 227 230 233
233 230 226 223 221 220 221 223 226 226 225 221 215 211 207 203 201 200 201 202 203 206 209 211 209 207 205 203 201 200 199 197 196 196 196 194 194 193 193 192 193 193 192 190 193 194 196 197 199 199 200 200 202 203 204 206 209 211 213 216 217 218 218 219 221 223 226 229 232
239 237 234 232 228 226 225 226 230 233 235 235 231 225 218 211 207 204 204 204 205 207 209 210 209 207 205 203 200 199 198 197 197 196 196 194 195 194 194 193 193 193 192 190 192 194 196 197 198 198 198 199 200 201 202 204 208 211 214 217 219 219 219 219 221 223 225 227 230
244 243 242 240 236 233 230 229 230 231 233 233 233 230 225 218 213 210 208 207 208 209 209 210 209 207 205 202 199 198 197 198 197 197 196 195 195 195 195 194 194 193 192 189 191 192 194 197 198 197 197 198 199 200 202 204 208 211 215 218 219 219 219 219 221 223 225 226 229
247 246 245 244 240 238 235 234 232 231 229 227 226 224 222 219 216 213 211 210 210 210 210 210 209 206 204 201 199 199 199 199 198 197 196 196 196 196 195 195 195 195 194 190 191 191 193 194 196 197 197 198 199 200 202 205 209 212 215 218 219 220 220 220 221 223 225 228 230
249 248 246 245 241 239 237 235 234 232 229 226 222 220 220 219 216 214 212 212 212 211 211 210 207 204 202 201 202 202 202 201 198 197 196 197 197 197 196 196 196 196 195 193 195 195 196 196 195 195 195 197 198 201 204 207 210 212 214 216 218 221 223 223 223 224 225 228 229
252 250 248 245 242 239 236 234 232 231 229 226 223 221 220 219 217 214 213 212 212 211 210 208 205 202 202 203 205 205 204 203 200 198 197 197 198 197 197 197 196 195 195 197 198 199 200 200 198 196 194 194 197 200 204 207 210 212 214 216 218 221 224 227 227 227 227 227 227
251 249 247 245 243 240 237 233 231 229 228 226 223 221 220 217 216 214 213 212 212 210 208 205 204 204 205 206 207 207 206 205 203 201 200 199 199 198 199 199 197 196 197 200 201 202 203 203 202 199 194 191 195 199 202 206 208 211 214 217 220 222 224 228 231 231 230 229 227
250 247 245 244 243 241 239 235 233 230 228 226 223 221 218 216 215 214 213 211 209 206 205 205 205 206 207 208 208 207 206 205 204 203 202 202 201 201 201 201 199 198 198 201 204 205 206 206 205 201 195 190 193 197 202 206 207 209 213 217 220 223 225 227 230 232 232 231 229
252 248 244 241 240 239 238 236 234 232 230 227 224 220 217 215 214 213 211 208 206 204 204 205 205 207 209 209 208 207 206 206 205 204 204 204 205 204 204 204 201 200 201 203 205 207 207 207 207 204 198 191 190 194 199 205 207 209 211 214 217 220 222 223 226 228 231 232 231
253 248 244 240 239 238 237 235 234 233 231 228 224 220 217 215 214 212 210 207 205 205 205 204 205 207 209 209 207 205 205 206 206 206 206 206 206 207 207 206 203 202 203 204 206 208 209 209 208 206 202 195 191 192 197 203 207 209 212 214 216 218 220 221 224 226 229 231 232
249 244 241 241 240 238 236 235 234 232 230 227 223 219 217 214 213 211 209 207 207 206 206 206 207 209 210 209 207 206 206 206 206 207 208 208 208 208 208 207 205 204 205 206 208 209 209 210 209 208 206 199 195 194 197 202 206 210 214 215 217 218 220 223 224 226 227 230 232
244 240 239 239 239 238 236 234 232 230 228 226 223 220 217 214 212 210 209 208 208 208 208 208 209 210 211 210 209 208 207 206 207 208 209 209 210 210 209 208 206 206 207 208 209 209 210 210 210 210 208 205 201 199 200 204 208 213 217 219 220 221 221 222 224 227 228 230 232
242 238 237 237 238 238 236 233 230 227 226 225 222 220 217 215 214 212 211 210 209 209 209 209 210 210 211 211 211 210 209 208 208 209 210 211 211 210 210 209 207 207 208 209 210 210 210 211 210 210 210 209 209 207 206 207 211 215 219 221 222 223 223 224 226 228 231 233 235
244 240 238 238 238 238 236 232 228 225 224 223 222 219 217 215 214 213 212 212 211 211 211 212 212 212 213 212 213 212 211 211 210 211 211 211 211 211 210 209 208 207 207 209 210 211 211 211 211 211 211 211 212 213 213 213 215 219 222 224 225 225 225 226 229 231 234 236 239
245 242 241 241 240 239 236 232 227 224 222 222 222 220 218 216 215 215 214 213 213 214 214 214 214 215 215 216 216 215 215 214 213 212 211 211 211 211 211 210 210 208 208 209 211 211 211 211 211 211 211 211 213 215 217 218 221 223 225 227 228 228 228 229 231 233 235 238 241
246 243 243 243 242 239 236 232 227 224 222 222 222 221 219 218 217 216 215 214 214 215 216 215 216 216 217 218 218 218 217 216 215 213 212 211 211 211 212 211 210 209 208 209 210 211 211 211 211 210 210 211 212 214 217 220 223 225 227 229 230 231 231 232 232 233 234 235 238
247 243 243 244 243 240 236 231 227 225 224 223 222 222 221 220 219 218 216 214 215 216 216 216 216 217 218 218 218 218 218 217 216 215 213 211 211 211 212 211 210 209 209 210 210 211 211 211 211 210 210 210 211 213 216 220 223 226 228 231 232 233 234 234 234 233 231 230 231
250 243 242 244 243 240 236 230 227 226 226 226 225 223 222 221 220 218 216 214 216 217 218 218 218 218 219 218 219 219 219 218 217 216 215 212 211 210 210 211 210 209 209 210 210 211 211 211 211 210 209 209 210 212 215 218 222 225 228 230 232 233 234 235 235 234 232 229 230
260 246 241 242 242 241 237 233 230 229 229 228 227 225 223 221 221 218 216 214 216 218 220 220 220 220 219 218 220 220 219 219 218 217 216 214 212 210 210 210 209 209 209 210 211 211 210 210 211 210 209 209 209 211 214 218 221 224 227 229 231 232 233 234 236 237 237 235 236
275 255 243 240 241 241 239 237 234 232 231 230 229 227 225 222 222 219 216 215 217 220 222 223 222 221 220 218 220 220 220 219 218 217 216 215 213 211 210 210 209 208 208 210 211 211 211 211 211 210 209 209 209 211 214 217 220 222 224 226 228 230 232 233 234 237 239 239 240
286 265 248 241 241 240 241 240 239 236 233 231 229 228 226 223 222 219 216 216 217 219 221 224 223 222 220 219 220 220 220 219 218 217 216 215 214 212 210 210 209 208 208 209 210 211 211 211 212 210 209 207 207 209 213 215 219 222 223 224 225 228 231 233 233 235 236 238 240